Regional Weather Roundup
Issued by NWS Goodland, KS

Home | Current Version | Previous Version | Text Only | Print | Product List | Glossary Off
Versions: 1 2 3 4 5 6 7 8 9 10 11 12 13 14 15 16 17 18 19 20 21 22 23 24 25 26 27 28 29 30 31 32 33 34 35 36 37 38 39 40 41 42 43 44 45 46 47 48 49 50

110
ASUS43 KGLD 230159
RWRGLD

GOODLAND FORECAST AREA HOURLY WEATHER ROUNDUP
NATIONAL WEATHER SERVICE GOODLAND KS
800 PM MDT SUN APR 22 2018

...OFFICIAL OBSERVATIONS...

CITY           SKY/WX    TMP DP  RH WIND       PRES   REMARKS
GOODLAND KS    CLEAR     46  37  71 SE8       30.15R
HILL CITY KS   MOCLDY    50  41  71 N6        30.15R
IMPERIAL NEB   CLEAR     49  38  65 MISG      30.15S
MCCOOK NEB     PTCLDY    51  38  60 E3        30.15R
AKRON CO       CLEAR     47  38  71 SE10      30.13R
BURLINGTON CO  CLEAR     43  36  76 E7        30.16R
LIMON CO       CLEAR     48  38  68 SE9       30.14R
$$

...UNOFFICIAL OBSERVATIONS...

CITY           SKY/WX    TMP DP  RH WIND       PRES   REMARKS
NORTON KS      CLOUDY    55  37  50 CALM      30.15
KIT CARSON CO    N/A     49  38  65 MISG        N/A
YUMA CO        FAIR      45  37  76 SE7       30.13S
$$




USA.gov is the U.S. government's official web portal to all federal, state and local government web resources and services.